Latest Coastal Weather Observations for Browse Island

IDW60701

Issued at 11:03 pm WST Friday 30 September 2016 (issued every 10 minutes, with the page automatically refreshed every 10 minutes)

About coastal observations | Map of coastal stations | Coastal observations for WA | Marine services | Other Formats
Station Details ID: 200784 Name: BROWSE ISLAND Lat: -14.11 Lon: 123.55 Height: 3.7 m
Data from the previous 72 hours. | See also: Recent months at Browse Island
Date/Time
WST
Temp
°C
Wind Pressure Rain since
9am
mm
Weather Cloud Vis
km
Sea
Height
m
Swell
Dir  Spd
kts
Gust
kts
hPa Trend Height
m
Period
s
Dir
30/11:00pm 28.1 W 9 10 1009.6 - - - - - - - - -
30/10:30pm 28.0 W 9 - 1009.0 - - - - - - - - -
30/10:00pm 28.2 W 8 - 1009.5 - - - - - - - - -
30/09:30pm 28.0 W 9 - 1009.0 - - - - - - - - -
30/09:00pm 28.2 W 8 - 1009.1 - - - - - - - - -
30/08:30pm 28.0 W 8 - 1009.0 - - - - - - - - -
30/08:00pm 28.2 W 9 - 1008.9 - - - - - - - - -
30/07:30pm 28.0 W 9 - 1008.0 - - - - - - - - -
30/07:00pm 28.1 WNW 9 - 1008.3 - - - - - - - - -
30/06:30pm 28.0 WNW 8 - 1008.0 - - - - - - - - -
30/06:00pm 28.2 WNW 8 - 1007.8 - - - - - - - - -
30/05:30pm 28.0 WNW 7 - 1007.0 - - - - - - - - -
30/05:00pm 28.4 WNW 7 - 1007.1 - - - - - - - - -
30/04:30pm 29.0 WNW 6 - 1006.0 - - - - - - - - -
30/04:00pm 28.7 WNW 6 - 1006.6 - - - - - - - - -
30/03:30pm 29.0 W 5 - 1006.0 - - - - - - - - -
30/03:00pm 29.2 W 5 - 1006.6 - - - - - - - - -
30/02:30pm 29.0 WSW 5 - 1006.0 - - - - - - - - -
30/02:00pm 28.3 SW 7 - 1007.2 - - - - - - - - -
30/01:30pm 29.0 WSW 5 - 1007.0 - - - - - - - - -
30/01:00pm 28.5 WSW 6 - 1007.4 - - - - - - - - -
30/12:30pm 29.0 WSW 5 - 1007.0 - - - - - - - - -
30/12:00pm 28.8 WSW 6 - 1008.1 - - - - - - - - -
30/11:30am 28.0 SW 6 - 1008.0 - - - - - - - - -
30/11:00am 28.6 SW 5 - 1008.7 - - - - - - - - -
30/10:30am 29.0 SSW 5 - 1009.0 - - - - - - - - -
30/10:00am 28.1 SSW 7 - 1009.3 - - - - - - - - -
30/09:30am 28.0 SSW 8 - 1009.0 - - - - - - - - -
30/09:00am 27.7 SSW 8 - 1009.6 - - - - - - - - -
30/08:30am 28.0 SSW 8 - 1009.0 - - - - - - - - -
30/08:00am 27.8 SSW 8 - 1009.5 - - - - - - - - -
30/07:30am 28.0 SSW 9 - 1009.0 - - - - - - - - -
30/07:00am 27.7 SSW 9 - 1009.3 - - - - - - - - -
30/06:30am 28.0 SW 8 - 1009.0 - - - - - - - - -
30/06:00am 27.6 WSW 8 - 1008.9 - - - - - - - - -
30/05:30am 28.0 WSW 8 - 1008.0 - - - - - - - - -
30/05:00am 27.7 SW 8 - 1008.7 - - - - - - - - -
30/04:30am 28.0 SW 10 - 1008.0 - - - - - - - - -
30/04:00am 27.9 WSW 10 - 1008.4 - - - - - - - - -
30/03:30am 28.0 WSW 9 - 1008.0 - - - - - - - - -
30/03:00am 28.0 WSW 8 - 1008.1 - - - - - - - - -
30/02:30am 28.0 WSW 10 - 1008.0 - - - - - - - - -
30/02:00am 28.0 WSW 8 - 1007.9 - - - - - - - - -
30/01:30am 28.0 WSW 8 - 1008.0 - - - - - - - - -
30/01:00am 27.9 W 9 - 1008.1 - - - - - - - - -
30/12:30am 28.0 W 8 - 1008.0 - - - - - - - - -
30/12:00am 28.1 W 9 - 1008.8 - - - - - - - - -
 
Date/Time
WST
Temp
°C
Wind Pressure Rain since
9am
mm
Weather Cloud Vis
km
Sea
Height
m
Swell
Dir  Spd
kts
Gust
kts
hPa Trend Height
m
Period
s
Dir
29/11:30pm 28.0 W 10 - 1009.0 - - - - - - - - -
29/11:00pm 28.1 W 12 - 1009.1 - - - - - - - - -
29/10:30pm 28.0 W 10 - 1009.0 - - - - - - - - -
29/10:00pm 28.4 W 10 - 1009.6 - - - - - - - - -
29/09:30pm 28.0 W 9 - 1009.0 - - - - - - - - -
29/09:00pm 28.3 WSW 9 - 1009.3 - - - - - - - - -
29/08:30pm 28.0 WSW 9 - 1009.0 - - - - - - - - -
29/08:00pm 28.3 SW 9 - 1008.9 - - - - - - - - -
29/07:30pm 28.0 SW 9 - 1008.0 - - - - - - - - -
29/07:00pm 28.1 SW 9 - 1008.3 - - - - - - - - -
29/06:30pm 28.0 SW 10 - 1008.0 - - - - - - - - -
29/06:00pm 28.2 SSW 9 - 1007.6 - - - - - - - - -
29/05:30pm 28.0 SSW 9 - 1007.0 - - - - - - - - -
29/05:00pm 28.5 SSW 10 - 1006.8 - - - - - - - - -
29/04:30pm 29.0 SSW 10 - 1006.0 - - - - - - - - -
29/04:00pm 28.8 SSW 11 - 1006.7 - - - - - - - - -
29/03:30pm 29.0 SSW 11 - 1006.0 - - - - - - - - -
29/03:00pm 29.0 SSW 9 - 1006.8 - - - - - - - - -
29/02:30pm 29.0 SSW 9 - 1007.0 - - - - - - - - -
29/02:00pm 28.8 SSW 10 - 1007.1 - - - - - - - - -
29/01:30pm 29.0 SSW 10 - 1007.0 - - - - - - - - -
29/01:00pm 29.1 SSW 9 - 1007.7 - - - - - - - - -
29/12:30pm 29.0 SSW 8 - 1008.0 - - - - - - - - -
29/12:00pm 29.9 SW 5 - 1008.4 - - - - - - - - -
29/11:30am 30.0 SW 4 - 1009.0 - - - - - - - - -
29/11:00am 29.7 SW 4 - 1009.3 - - - - - - - - -
29/10:30am 29.0 SW 5 - 1010.0 - - - - - - - - -
29/10:00am 28.8 SW 6 - 1010.3 - - - - - - - - -
29/09:30am 28.0 SSW 7 - 1010.0 - - - - - - - - -
29/09:00am 28.3 SW 7 - 1010.6 - - - - - - - - -
29/08:30am 28.0 SSW 8 - 1010.0 - - - - - - - - -
29/08:00am 28.1 SSW 8 - 1010.8 - - - - - - - - -
29/07:30am 28.0 SSW 9 - 1010.0 - - - - - - - - -
29/07:00am 27.6 SSW 9 - 1010.6 - - - - - - - - -
29/06:30am 27.0 SSW 11 - 1010.0 - - - - - - - - -
29/06:00am 27.2 SSW 11 - 1010.0 - - - - - - - - -
29/05:30am 27.0 SW 11 - 1009.0 - - - - - - - - -
29/05:00am 27.1 SSW 10 - 1009.4 - - - - - - - - -
29/04:30am 27.0 S 12 - 1009.0 - - - - - - - - -
29/04:00am 27.1 S 13 - 1008.8 - - - - - - - - -
29/03:30am 27.0 S 16 - 1008.0 - - - - - - - - -
29/03:00am 27.2 SSW 15 - 1008.5 - - - - - - - - -
29/02:30am 27.0 SW 14 - 1008.0 - - - - - - - - -
29/02:00am 27.5 SW 15 - 1008.3 - - - - - - - - -
29/01:30am 27.0 SW 11 - 1008.0 - - - - - - - - -
29/01:00am 27.5 WSW 11 - 1008.7 - - - - - - - - -
29/12:30am 28.0 WSW 10 - 1009.0 - - - - - - - - -
29/12:00am 27.6 SW 10 - 1009.4 - - - - - - - - -
 
Date/Time
WST
Temp
°C
Wind Pressure Rain since
9am
mm
Weather Cloud Vis
km
Sea
Height
m
Swell
Dir  Spd
kts
Gust
kts
hPa Trend Height
m
Period
s
Dir
28/11:30pm 28.0 SW 10 - 1009.0 - - - - - - - - -
28/11:00pm 27.5 WSW 10 - 1010.1 - - - - - - - - -
28/10:30pm 28.0 WSW 10 - 1010.0 - - - - - - - - -
28/10:00pm 27.7 SW 9 - 1010.5 - - - - - - - - -
28/09:30pm 28.0 SW 9 - 1010.0 - - - - - - - - -
28/09:00pm 27.6 SW 9 - 1010.5 - - - - - - - - -
28/08:30pm 28.0 SSW 8 - 1010.0 - - - - - - - - -
28/08:00pm 27.5 SW 9 - 1010.1 - - - - - - - - -
28/07:30pm 27.0 SW 8 - 1010.0 - - - - - - - - -
28/07:00pm 27.5 SW 9 - 1009.8 - - - - - - - - -
28/06:30pm 28.0 SSW 8 - 1009.0 - - - - - - - - -
28/06:00pm 27.6 SSW 8 - 1009.2 - - - - - - - - -
28/05:30pm 28.0 S 6 - 1008.0 - - - - - - - - -
28/05:00pm 27.6 S 7 - 1008.6 - - - - - - - - -
28/04:30pm 28.0 S 9 - 1008.0 - - - - - - - - -
28/04:00pm 27.7 S 10 - 1008.4 - - - - - - - - -
28/03:30pm 28.0 S 12 - 1008.0 - - - - - - - - -
28/03:00pm 27.8 S 12 - 1008.6 - - - - - - - - -
28/02:30pm 28.0 S 11 - 1008.0 - - - - - - - - -
28/02:00pm 28.1 S 11 - 1009.0 - - - - - - - - -
28/01:30pm 28.0 S 12 - 1009.0 - - - - - - - - -
28/01:00pm 28.1 S 12 - 1009.8 - - - - - - - - -
28/12:30pm 28.0 S 12 - 1010.0 - - - - - - - - -
28/12:00pm 28.1 S 11 - 1010.6 - - - - - - - - -
28/11:30am 28.0 S 12 - 1011.0 - - - - - - - - -
28/11:00am 28.0 S 11 - 1011.4 - - - - - - - - -
28/10:30am 28.0 S 9 - 1011.0 - - - - - - - - -
28/10:00am 27.8 S 8 - 1012.0 - - - - - - - - -
28/09:30am 28.0 S 8 - 1012.0 - - - - - - - - -
28/09:00am 27.5 S 9 - 1012.1 - - - - - - - - -
28/08:30am 28.0 S 10 - 1012.0 - - - - - - - - -
28/08:00am 27.4 S 8 - 1012.0 - - - - - - - - -
28/07:30am 28.0 S 9 - 1012.0 - - - - - - - - -
28/07:00am 27.3 S 9 - 1011.7 - - - - - - - - -
28/06:30am 27.0 S 9 - 1011.0 - - - - - - - - -
28/06:00am 27.1 S 11 - 1010.8 - - - - - - - - -
28/05:30am 27.0 S 11 - 1010.0 - - - - - - - - -
28/05:00am 27.1 S 11 - 1009.9 - - - - - - - - -
28/04:30am 27.0 SSW 12 - 1009.0 - - - - - - - - -
28/04:00am 27.2 SSW 12 - 1009.5 - - - - - - - - -
28/03:30am 27.0 SW 11 - 1009.0 - - - - - - - - -
28/03:00am 27.2 SW 11 - 1009.1 - - - - - - - - -
28/02:30am 27.0 SW 11 - 1009.0 - - - - - - - - -
28/02:00am 27.2 SW 11 - 1009.3 - - - - - - - - -
28/01:30am 27.0 SSW 10 - 1009.0 - - - - - - - - -
28/01:00am 27.4 SW 11 - 1009.8 - - - - - - - - -
28/12:30am 28.0 SW 11 - 1010.0 - - - - - - - - -
28/12:00am 27.5 SW 11 - 1010.4 - - - - - - - - -
 
Date/Time
WST
Temp
°C
Wind Pressure Rain since
9am
mm
Weather Cloud Vis
km
Sea
Height
m
Swell
Dir  Spd
kts
Gust
kts
hPa Trend Height
m
Period
s
Dir
27/11:30pm 28.0 SW 10 - 1010.0 - - - - - - - - -

Other Formats:

Comma delimited format used in spreadsheet applications
http://www.bom.gov.au/fwo/IDW60701/IDW60701.94103.axf

JavaScript Object Notation format (JSON) in row-major order
http://www.bom.gov.au/fwo/IDW60701/IDW60701.94103.json